Погода в Лозовском

Россия / Курская область     51°38′39″N   35°49′12″E
темп.,
°C
ветер,
м/с
пор.,
м/с
влажн.,
%
обл.,
%
осадки,
мм/ч
давл.,
гПа
погр.,
м
4 марта, чт
чт400:00−2з5119327 0.0 1018310
03:00−2зюз5109314 0.0 1017276
06:00−5зюз511920 0.0 1015240
09:00−3юз714900 0.0 1012387
12:000зюз813920 0.0 1010539
15:000юз81210016 0.0 1007508
18:00+1зюз71297100 0.0 1005643
21:00+1зюз51199100 0.3 1004396
5 марта, пт
пт500:00+1з51098100 0.2 1005397
03:000зсз5995100 0.3 1006539
06:00−2зсз4995100 0.0 1008522
09:00−2сз479492 0.1 1010302
12:00−1с238648 0.0 1011377
15:00−1сз228455 0.0 1012499
18:00−2зсз1289100 0.0 101321
21:00−3сз1291100 0.0 101521
6 марта, сб
сб600:00−5ссз2389100 0.0 101660
03:00−5ссз2390100 0.0 101665
06:00−6сз2393100 0.0 101660
09:00−5сз599199 0.1 1017514
12:00−4сз688394 0.0 1017924
15:00−4сз7117797 0.3 10181311
18:00−5сз6128199 0.1 1019760
21:00−7сз5128352 0.1 1021392
7 марта, вс
вс700:00−8зсз38910 0.0 1022197
03:00−8зюз49910 0.0 1021213
06:00−7юз6128711 0.0 1019342
09:00−5юз8167755 0.0 1016708
12:00−3зюз111773100 0.0 10131113
15:00−2зюз121988100 0.3 10091316
18:00−1зюз91681100 0.1 10081068
21:00−2зюз8178293 0.1 1008793
8 марта, пн
пн800:00−2зюз8158883 0.1 1007764
03:00−2зюз8149390 0.1 1005830
06:00−2зюз91592100 0.2 1004962
09:00−3зсз71383100 0.9 10061108
12:00−5сз696676 0.1 1009888
15:00−4зсз456538 0.1 1011809
18:00−6зсз22800 0.0 101224
21:00−8сз22830 0.0 101321